Theta_e
315 318 322 324 326 326 327 328 329 330 330 330 329 327 326 326 326 325 324 324 323 323 323 322 321 320 320 320 320 320 320 319 318 318 314 314 311 310 308 305 302 298 294
314 315 318 321 324 325 326 327 328 329 329 329 328 327 326 325 325 325 324 323 323 323 322 321 321 320 320 320 320 319 319 319 318 317 312 308 306 304 303 299 297 293 293
315 319 319 321 323 324 325 326 326 326 326 327 326 327 326 325 325 324 324 323 322 322 322 321 320 320 320 320 320 319 319 319 318 316 310 304 301 298 293 293 292 292 292
307 318 322 322 323 324 325 325 324 324 325 326 325 325 325 325 325 324 323 322 322 322 322 322 321 321 321 321 320 320 319 318 316 312 307 302 297 294 293 291 290 290 290
307 307 314 319 320 320 321 322 322 322 322 323 323 323 323 323 324 323 323 323 322 321 321 321 321 321 320 320 320 318 316 313 310 306 300 296 293 292 291 291 290 289 289
306 307 307 306 310 316 316 316 317 317 318 319 320 320 321 321 321 321 321 321 320 320 320 320 319 316 316 315 313 312 310 308 305 301 297 296 295 295 293 291 289 287 288
306 306 306 305 305 305 306 308 310 311 312 313 314 314 314 314 314 316 317 317 316 315 314 312 309 308 306 307 306 306 304 303 302 301 299 298 296 296 294 290 290 289 289
305 305 305 304 304 304 303 303 302 303 303 305 306 307 309 309 310 311 312 312 311 310 308 306 305 305 304 305 303 303 301 299 298 298 297 295 294 294 293 293 291 289 289
305 304 304 302 302 301 300 301 302 302 303 303 303 303 304 304 305 307 308 307 306 305 303 302 302 302 301 301 300 299 297 295 294 294 294 293 293 292 292 291 289 289 289
302 301 301 300 298 299 300 301 301 301 301 300 299 298 298 299 299 300 301 302 301 299 297 296 297 297 296 296 297 296 293 291 292 291 290 290 290 290 289 289 289 289 290
295 296 296 297 298 299 300 300 300 299 298 296 295 294 294 294 294 295 296 297 297 294 294 293 293 293 293 293 293 292 292 291 290 289 289 289 289 289 288 288 289 289 289
291 293 295 297 298 299 299 298 297 296 295 293 292 292 292 292 292 292 293 294 294 294 292 292 292 292 291 291 291 291 290 290 289 289 288 288 288 288 288 287 287 287 287
290 292 294 296 296 297 297 296 294 293 293 292 292 291 291 291 290 290 290 291 292 292 291 291 291 291 290 290 290 289 289 289 288 288 287 286 286 286 286 285 285 285 284
289 291 292 293 293 293 293 293 293 292 292 292 291 290 290 290 289 289 289 289 289 290 290 290 290 290 289 289 288 288 287 287 287 286 285 285 284 283 283 283 283 283 283
287 289 290 290 290 290 290 290 291 290 292 291 290 290 289 288 288 288 288 288 288 288 288 288 288 287 287 286 286 286 285 285 285 284 284 284 284 283 283 283 283 283 284
285 287 287 288 288 287 286 286 286 287 288 289 288 288 288 288 288 288 287 286 287 287 286 285 285 285 284 284 284 284 284 284 284 284 284 284 283 283 282 282 282 282 283
284 285 285 286 286 286 285 285 283 283 284 285 286 287 288 288 288 287 286 285 285 285 285 284 284 283 283 282 282 282 282 282 281 281 282 282 282 282 281 281 282 282 282
279 281 282 283 284 284 283 283 283 284 282 281 282 282 283 286 287 287 286 285 285 284 284 284 283 283 282 282 281 281 281 281 281 281 281 281 280 280 281 281 281 281 280
275 276 278 279 280 280 280 280 280 280 279 278 280 282 282 282 284 285 285 284 284 283 282 282 281 281 281 281 280 280 279 279 279 279 279 278 278 278 278 279 279 278 277
272 273 274 274 275 275 276 276 276 276 275 274 274 275 277 279 278 278 278 278 277 277 276 276 276 276 277 277 277 276 277 276 276 276 276 276 275 275 276 276 276 276 276
271 272 272 272 272 272 272 272 273 273 272 272 271 273 273 273 272 273 273 273 273 273 273 273 273 273 273 273 274 274 274 274 274 274 274 273 273 273 273 273 273 274 273
270 270 270 270 271 271 271 271 271 270 270 270 269 270 270 270 270 270 270 270 270 270 270 270 270 270 271 271 271 271 271 271 271 271 271 271 271 271 271 271 271 271 271
269 269 269 269 269 269 269 269 269 269 268 268 269 269 269 269 269 269 269 269 269 269 269 269 269 269 269 269 269 269 269 269 269 269 269 269 269 269 269 269 269 270 269
267 267 267 267 267 267 267 267 267 267 267 267 267 267 267 267 267 267 267 266 266 267 267 267 267 267 268 268 268 268 268 268 268 267 267 267 267 267 267 267 267 268 268
265 265 265 265 265 265 265 265 265 265 265 265 265 265 265 265 265 266 265 265 265 265 265 265 265 265 265 265 266 266 266 266 266 266 265 265 265 265 265 265 266 266 266
264 264 264 264 263 263 263 263 263 263 263 263 263 263 263 263 263 263 263 263 263 263 263 263 263 264 264 264 264 264 264 264 264 264 264 264 264 264 264 264 264 264 264
Wind_Speed
16 19 20 22 23 24 26 27 29 28 27 27 28 28 28 27 27 28 29 28 28 30 29 32 32 32 28 28 30 30 29 27 16 16 16 20 20 20 20 20 20 21 21
14 16 19 20 21 22 23 24 24 25 26 26 30 30 29 29 29 29 30 31 31 31 33 30 31 29 31 32 30 30 29 28 25 20 16 19 17 16 17 16 18 20 21
12 14 16 18 19 21 21 21 22 25 25 27 30 30 31 31 28 28 30 31 31 31 31 29 29 30 30 28 29 28 29 31 31 23 15 13 15 12 12 12 15 17 19
10 11 12 13 14 16 16 17 18 20 21 23 25 29 28 28 28 26 26 27 27 29 30 31 29 29 30 29 29 30 31 30 26 22 15 11 10 8 10 11 14 18 19
13 11 10 10 11 12 14 14 16 17 18 18 21 24 26 26 25 25 24 26 27 27 27 27 25 26 27 28 25 26 24 21 19 18 8 5 5 5 8 9 13 14 17
18 16 13 12 12 14 15 15 16 17 18 19 21 22 23 24 24 24 24 25 26 25 24 23 22 18 18 16 14 15 12 15 17 10 6 6 8 8 9 12 10 6 3
24 23 19 15 13 12 13 13 14 15 15 14 14 12 13 15 17 18 19 17 15 14 12 14 13 10 8 7 6 8 6 8 9 9 9 7 4 6 7 10 13 7 4
26 26 22 18 16 14 13 11 9 7 8 10 13 12 11 11 11 11 10 10 10 9 9 9 9 8 8 7 6 4 4 5 5 4 4 3 3 2 3 5 11 11 6
27 28 25 19 17 14 12 10 9 8 7 8 7 8 9 8 9 10 11 11 11 9 8 7 7 7 7 7 6 7 6 5 4 4 3 3 3 3 3 7 11 12 4
18 17 19 15 14 13 11 11 10 9 8 7 5 5 5 5 4 6 7 9 9 10 8 6 5 5 5 5 7 9 10 9 9 9 9 9 9 8 7 6 8 9 5
20 17 13 11 11 12 11 12 10 10 8 6 6 5 4 3 3 3 6 7 8 8 8 8 7 9 8 9 9 9 9 11 9 11 11 10 10 8 6 5 4 6 7
18 13 12 11 11 12 12 11 11 12 12 12 10 9 7 6 5 5 6 7 8 10 9 11 13 13 12 11 11 9 10 10 9 9 9 9 7 4 1 2 4 5 8
18 15 12 10 10 12 13 12 13 13 13 12 11 11 9 8 8 8 9 9 10 11 12 11 14 13 14 14 12 11 9 9 9 8 7 6 4 1 1 3 3 3 5
17 13 9 8 8 9 11 13 14 14 12 11 10 10 10 8 7 7 8 10 13 15 15 13 14 13 12 13 11 10 9 7 7 6 6 3 3 2 0 2 2 3 2
16 12 7 7 8 9 8 7 9 7 8 11 9 10 10 8 6 5 7 9 12 13 15 13 13 12 11 9 8 8 6 6 5 4 3 2 2 2 3 2 3 3 4
15 9 6 7 10 14 17 20 16 13 10 9 9 8 6 8 9 8 9 10 12 10 10 9 9 8 7 6 6 5 4 4 3 3 4 4 4 4 3 3 4 5 5
8 5 4 8 13 15 14 13 15 19 23 19 13 12 11 10 10 11 12 12 9 7 9 8 7 6 4 3 2 2 2 2 3 3 3 4 4 4 4 4 4 4 5
7 6 5 8 11 13 12 13 13 12 12 17 19 19 16 12 13 9 9 10 10 9 7 6 6 5 5 4 2 1 2 2 2 3 3 3 4 3 3 4 4 5 6
14 14 10 11 14 14 14 13 16 17 17 16 14 12 10 9 6 7 9 11 10 8 6 4 4 3 3 1 1 2 3 3 3 3 3 3 4 5 5 6 6 7 8
22 22 19 19 20 20 19 16 16 18 19 21 21 18 11 7 11 11 10 9 8 6 5 3 4 3 3 3 4 5 5 5 6 6 6 7 7 7 7 7 8 9 9
23 26 26 26 25 23 22 21 21 20 18 14 11 13 11 10 10 10 10 9 8 7 6 7 7 7 7 7 7 7 8 9 9 10 10 9 9 9 9 9 10 11 12
22 23 23 24 22 22 20 19 17 14 12 10 8 9 10 11 10 9 9 9 9 9 10 10 11 11 12 12 12 12 12 12 12 12 12 12 13 12 11 12 12 12 12
22 21 21 20 19 17 17 15 14 12 10 9 9 10 11 11 10 11 12 13 13 13 14 14 15 15 15 15 15 15 16 16 15 16 16 16 15 14 13 14 14 14 14
21 19 18 17 18 16 15 13 13 12 12 13 13 14 14 14 14 14 14 15 15 16 16 17 17 18 19 18 18 18 19 18 18 18 18 18 18 17 17 17 17 17 16
19 18 18 17 16 15 14 13 12 13 13 12 12 12 12 13 14 15 16 17 18 19 19 19 20 21 21 21 22 21 21 21 21 20 21 21 20 20 20 20 19 17 16
16 16 15 15 14 14 13 12 12 12 12 13 13 14 15 16 17 17 18 19 20 21 23 23 22 22 22 23 23 23 23 22 22 21 21 23 24 24 22 22 21 21 20
Wind_Direction
263 250 242 240 241 243 243 243 242 241 236 232 228 228 225 224 226 222 223 226 227 229 231 233 236 241 241 243 242 240 242 239 248 258 238 239 243 248 251 254 255 250 239
279 262 246 239 236 238 241 244 244 244 241 238 242 235 229 228 224 221 221 222 223 224 232 233 239 240 241 241 241 238 238 240 242 253 236 230 236 244 249 248 250 250 243
290 275 259 244 235 235 237 238 240 242 244 241 242 236 232 232 231 227 224 226 227 229 232 235 237 239 239 241 244 242 241 245 242 240 228 225 233 237 232 243 241 242 242
295 279 270 265 256 248 245 246 246 245 245 244 243 243 239 237 238 234 231 231 234 234 236 242 241 243 245 249 252 253 250 246 241 238 229 218 229 232 234 228 221 234 238
286 282 275 267 251 249 242 241 241 243 245 247 251 249 248 246 241 237 234 233 236 240 243 247 251 252 254 260 260 255 253 240 234 229 198 175 188 203 217 230 224 233 239
274 267 264 265 263 257 249 247 248 247 248 250 249 248 247 248 245 244 245 249 251 248 247 249 249 241 245 241 237 239 240 245 234 220 184 193 220 229 223 218 187 166 232
273 268 260 255 256 261 264 259 253 249 250 251 250 251 247 246 246 246 245 244 245 240 241 233 232 227 227 216 229 235 220 232 239 235 228 227 225 251 239 216 204 190 179
266 264 260 253 250 250 255 257 257 254 249 251 253 250 238 233 230 222 221 220 220 222 218 210 211 212 224 220 217 217 212 220 215 208 212 208 206 241 232 238 217 196 186
266 263 257 254 251 244 241 241 243 244 234 236 238 239 237 233 233 222 214 208 198 193 196 200 202 204 214 210 198 182 169 175 169 164 167 136 128 140 178 176 169 165 154
289 271 263 256 250 240 235 230 229 237 226 226 216 212 208 216 212 208 210 208 189 177 167 160 161 165 161 158 171 166 149 140 137 131 116 112 117 125 136 147 176 166 136
302 293 274 257 246 238 236 230 224 204 188 177 165 144 134 121 103 130 161 178 172 154 142 130 120 123 119 122 132 134 132 139 133 123 116 112 110 112 121 157 185 198 189
303 285 270 252 235 223 219 217 201 183 165 152 143 131 123 118 98 101 127 147 148 153 142 129 125 126 115 118 113 110 115 136 132 123 119 112 110 108 115 239 241 246 232
300 284 266 245 227 215 204 195 181 178 167 160 153 147 138 130 118 108 112 120 127 133 130 124 127 126 117 111 109 107 119 127 125 117 109 98 92 78 334 280 262 249 240
300 280 256 223 201 199 192 188 184 178 171 169 161 156 158 144 133 123 113 111 116 121 131 134 132 127 119 116 108 101 101 101 104 101 90 61 359 17 34 232 249 258 265
299 274 242 213 181 154 147 156 166 164 180 171 164 171 163 165 160 150 134 132 132 135 132 125 118 115 110 103 97 93 84 87 83 89 105 160 225 215 204 213 226 236 241
301 267 224 183 155 127 109 93 82 91 108 130 131 151 140 150 141 130 120 120 132 139 126 112 109 114 117 124 127 136 150 153 161 174 204 218 225 221 223 239 246 246 260
305 254 197 158 137 129 124 119 105 82 80 83 92 97 97 125 124 117 113 107 102 108 114 116 118 124 120 121 134 157 170 191 207 207 218 226 241 246 246 248 259 269 278
16 59 114 118 115 111 108 109 102 93 76 69 68 72 63 95 108 141 127 111 89 88 105 117 124 129 127 127 136 182 217 224 200 204 218 226 230 246 265 277 281 275 278
43 52 65 86 93 100 95 87 87 84 75 63 60 57 58 58 81 109 108 91 85 84 69 77 78 94 96 125 217 253 268 268 254 253 252 265 273 280 279 279 279 279 276
52 60 68 68 72 72 71 67 67 71 70 66 54 29 32 45 50 50 55 61 62 56 39 27 357 345 333 323 312 301 301 294 295 292 288 281 279 279 276 276 274 272 266
55 62 65 63 61 64 68 64 68 69 66 67 62 48 41 58 44 37 33 33 27 15 358 344 334 329 325 322 320 315 308 303 299 297 293 291 287 282 276 272 265 262 262
47 56 61 63 64 64 65 70 70 72 73 69 52 39 40 47 39 27 18 8 358 349 339 331 325 321 319 317 312 307 301 297 295 292 292 289 286 279 275 269 262 258 255
46 47 50 54 56 56 51 52 52 49 44 38 30 22 20 17 8 1 350 341 337 333 328 324 320 316 313 309 306 301 296 294 290 287 288 287 282 276 268 262 256 255 250
37 36 38 38 41 44 40 33 31 26 21 16 11 4 359 353 347 343 335 328 325 323 322 317 313 308 305 301 298 296 295 293 290 287 285 282 278 272 268 264 257 255 253
24 25 25 22 21 21 18 14 10 5 3 359 351 346 339 336 332 328 325 322 320 319 318 314 311 307 304 300 297 294 290 287 285 282 278 275 270 267 261 258 257 254 252
15 16 16 14 12 9 5 1 356 351 348 342 338 334 329 327 325 323 321 321 319 316 314 312 309 305 302 299 298 297 294 289 283 279 275 270 267 267 265 263 262 256 252